Weather History for Leesburg, FL

Change the Weather History Date:

Friday, March 8, 2013

  Actual Average Record
Temperature  
Mean Temperature 59 °F -  
Max Temperature 75 °F 73 °F 87 °F (1974)
Min Temperature 43 °F 51 °F 30 °F (1971)
Degree Days  
Heating Degree Days 6    
Growing Degree Days 9 (Base 50)    
Moisture  
Dew Point 39 °F    
Average Humidity 57    
Maximum Humidity 93    
Minimum Humidity 18    
Precipitation  
Precipitation 0.00 in - - ()
Sea Level Pressure  
Sea Level Pressure 30.21 in    
Wind  
Wind Speed 2 mph (North)    
Max Wind Speed 10 mph    
Max Gust Speed 18 mph    
Visibility 9 miles    
Events      
Averages and records for this station are not official NWS values.
T = Trace of Precipitation, MM = Missing Value Source: NWS Daily Summary

Daily Weather History Graph

Daily Weather History Graph

Search for Another Location

Airport:

Trip Planner

Search our weather history database for the weather conditions in past years. The results will help you decide how hot, cold, wet, or windy it might be!

Date:

Astronomy

Mar. 08, 2013 Rise Set
Actual Time 6:44 AM EST 6:31 PM EST
Civil Twilight 6:20 AM EST 6:55 PM EST
Nautical Twilight 5:53 AM EST 7:22 PM EST
Astronomical Twilight 5:26 AM EST 7:50 PM EST
Moon 4:14 AM EST (3/8) 3:36 PM EST (3/8)
Length of Visible Light 12h 34m
Length of Day
11h 47m
Waning Crescent, 12% of the Moon is Illuminated
Mar 8
Waning Crescent
Mar 11
New
Mar 19
First Quarter
Mar 27
Full
Apr 3
Last Quarter

Hourly Weather History & Observations

Time (EST) Temp. Windchill Dew Point Humidity Pressure Visibility Wind Dir Wind Speed Gust Speed Precip Events Conditions
12:53 AM 46.9 °F - 44.1 °F 90% 30.23 in 8.0 mi Calm Calm - N/A   Clear
1:53 AM 46.9 °F - 42.1 °F 83% 30.23 in 10.0 mi Calm Calm - N/A   Clear
2:53 AM 45.0 °F 43.5 °F 41.0 °F 86% 30.21 in 9.0 mi NW 3.5 mph - N/A   Clear
3:53 AM 46.0 °F - 42.1 °F 86% 30.20 in 8.0 mi Calm Calm - N/A   Clear
4:53 AM 45.0 °F - 42.1 °F 90% 30.20 in 7.0 mi Calm Calm - N/A   Clear
5:53 AM 44.1 °F - 42.1 °F 93% 30.21 in 6.0 mi Calm Calm - N/A   Clear
6:53 AM 43.0 °F - 41.0 °F 93% 30.23 in 4.0 mi Calm Calm - N/A   Clear
7:53 AM 48.9 °F - 44.1 °F 83% 30.25 in 7.0 mi North 4.6 mph - N/A   Clear
8:53 AM 54.0 °F - 42.1 °F 64% 30.25 in 10.0 mi Variable 3.5 mph - N/A   Clear
9:53 AM 61.0 °F - 37.0 °F 41% 30.25 in 10.0 mi NE 5.8 mph - N/A   Clear
10:53 AM 64.0 °F - 37.9 °F 38% 30.25 in 10.0 mi WNW 4.6 mph - N/A   Clear
11:53 AM 66.9 °F - 39.0 °F 36% 30.23 in 10.0 mi Variable 3.5 mph - N/A   Clear
12:53 PM 71.1 °F - 33.1 °F 25% 30.21 in 10.0 mi NNW 9.2 mph - N/A   Clear
1:53 PM 73.0 °F - 30.0 °F 20% 30.17 in 10.0 mi NNW 10.4 mph 18.4 mph N/A   Clear
2:53 PM 75.9 °F - 30.0 °F 19% 30.15 in 10.0 mi North 6.9 mph - N/A   Clear
3:53 PM 75.9 °F - 28.9 °F 18% 30.14 in 10.0 mi NNW 6.9 mph - N/A   Clear
4:53 PM 73.9 °F - 30.9 °F 21% 30.14 in 10.0 mi Calm Calm - N/A   Clear
5:53 PM 70.0 °F - 37.9 °F 31% 30.14 in 10.0 mi Calm Calm - N/A   Clear
6:53 PM 64.9 °F - 39.0 °F 39% 30.18 in 10.0 mi East 9.2 mph - N/A   Clear
7:53 PM 63.0 °F - 44.1 °F 50% 30.19 in 10.0 mi East 6.9 mph - N/A   Clear
8:53 PM 59.0 °F - 44.1 °F 58% 30.23 in 10.0 mi Calm Calm - N/A   Clear
9:53 PM 55.0 °F - 45.0 °F 69% 30.23 in 10.0 mi NE 3.5 mph - N/A   Clear
10:53 PM 53.1 °F - 44.1 °F 71% 30.24 in 10.0 mi Calm Calm - N/A   Clear
11:53 PM 53.1 °F - 45.0 °F 74% 30.23 in 10.0 mi NE 3.5 mph - N/A   Clear